"Period start","avg(HW err(1)/warn(2) (#))","avg(Visibility (m))","avg(Weather code (#))","avg(Precip intensity (mm/h))","min(HW err(1)/warn(2) (#))","max(HW err(1)/warn(2) (#))","std(HW err(1)/warn(2) (#))","med(HW err(1)/warn(2) (#))","min(Visibility (m))","max(Visibility (m))","std(Visibility (m))","med(Visibility (m))","min(Weather code (#))","max(Weather code (#))","std(Weather code (#))","med(Weather code (#))","min(Precip intensity (mm/h))","max(Precip intensity (mm/h))","std(Precip intensity (mm/h))","med(Precip intensity (mm/h))"
2013-07-25 00:00:00,0,43835,0,0.00,0,0,0,0,34708,49118,4704,44089,0,0,0,0,0.00,0.00,0.00,0.00
2013-07-25 00:10:00,0,45614,0,0.00,0,0,0,0,41277,50000,3318,45838,0,0,0,0,0.00,0.00,0.00,0.00
2013-07-25 00:20:00,0,41107,0,0.00,0,0,0,0,26524,49347,7586,42803,0,0,0,0,0.00,0.00,0.00,0.00
2013-07-25 00:30:00,0,47270,0,0.00,0,0,0,0,39806,50000,2883,48145,0,0,0,0,0.00,0.00,0.00,0.00
2013-07-25 00:40:00,0,46083,0,0.00,0,0,0,0,37984,50000,3716,47368,0,0,0,0,0.00,0.00,0.00,0.00
2013-07-25 00:50:00,0,41023,0,0.00,0,0,0,0,34048,50000,4866,40491,0,0,0,0,0.00,0.00,0.00,0.00
2013-07-25 01:00:00,0,39385,0,0.00,0,0,0,0,28559,48710,7447,42424,0,0,0,0,0.00,0.00,0.00,0.00
2013-07-25 01:10:00,0,41456,0,0.00,0,0,0,0,15094,50000,11364,46306,0,0,0,0,0.00,0.00,0.00,0.00
2013-07-25 01:20:00,0,45999,0,0.00,0,0,0,0,41877,50000,2507,45996,0,0,0,0,0.00,0.00,0.00,0.00
2013-07-25 01:30:00,0,47356,0,0.00,0,0,0,0,42345,50000,2990,48780,0,0,0,0,0.00,0.00,0.00,0.00
2013-07-25 01:40:00,0,38821,0,0.00,0,0,0,0,14109,50000,10528,41676,0,0,0,0,0.00,0.00,0.00,0.00
2013-07-25 01:50:00,0,41528,0,0.00,0,0,0,0,35585,47238,4246,40471,0,0,0,0,0.00,0.00,0.00,0.00
2013-07-25 02:00:00,0,46562,0,0.00,0,0,0,0,38462,50000,4394,48746,0,0,0,0,0.00,0.00,0.00,0.00
2013-07-25 02:10:00,0,43682,0,0.00,0,0,0,0,32187,50000,6664,47107,0,0,0,0,0.00,0.00,0.00,0.00
2013-07-25 02:20:00,0,47844,0,0.00,0,0,0,0,37924,50000,3917,50000,0,0,0,0,0.00,0.00,0.00,0.00
2013-07-25 02:30:00,0,42532,0,0.00,0,0,0,0,33521,50000,5911,43428,0,0,0,0,0.00,0.00,0.00,0.00
2013-07-25 02:40:00,0,45573,0,0.00,0,0,0,0,34478,50000,4864,47184,0,0,0,0,0.00,0.00,0.00,0.00
2013-07-25 02:50:00,0,47473,0,0.00,0,0,0,0,38876,50000,3543,49236,0,0,0,0,0.00,0.00,0.00,0.00
2013-07-25 03:00:00,0,40493,0,0.00,0,0,0,0,27088,50000,6914,40944,0,0,0,0,0.00,0.00,0.00,0.00
2013-07-25 03:10:00,0,43148,0,0.00,0,0,0,0,37426,50000,4471,41558,0,0,0,0,0.00,0.00,0.00,0.00
2013-07-25 03:20:00,0,47865,0,0.00,0,0,0,0,41545,50000,3337,50000,0,0,0,0,0.00,0.00,0.00,0.00
2013-07-25 03:30:00,0,44627,0,0.00,0,0,0,0,36048,50000,3918,44567,0,0,0,0,0.00,0.00,0.00,0.00
2013-07-25 03:40:00,0,45000,0,0.00,0,0,0,0,32580,50000,5566,47311,0,0,0,0,0.00,0.00,0.00,0.00
2013-07-25 03:50:00,0,47497,0,0.00,0,0,0,0,41474,50000,2830,48470,0,0,0,0,0.00,0.00,0.00,0.00
2013-07-25 04:00:00,0,42441,0,0.00,0,0,0,0,29106,50000,5900,42318,0,0,0,0,0.00,0.00,0.00,0.00
2013-07-25 04:10:00,0,40653,0,0.00,0,0,0,0,30913,50000,5670,40693,0,0,0,0,0.00,0.00,0.00,0.00
2013-07-25 04:20:00,0,41959,0,0.00,0,0,0,0,23409,50000,9353,46384,0,0,0,0,0.00,0.00,0.00,0.00
2013-07-25 04:30:00,0,41009,0,0.00,0,0,0,0,29938,49684,6102,41185,0,0,0,0,0.00,0.00,0.00,0.00
2013-07-25 04:40:00,0,47361,0,0.00,0,0,0,0,42442,50000,2917,48912,0,0,0,0,0.00,0.00,0.00,0.00
2013-07-25 04:50:00,0,45606,0,0.00,0,0,0,0,39070,50000,3983,45997,0,0,0,0,0.00,0.00,0.00,0.00
2013-07-25 05:00:00,0,48648,0,0.00,0,0,0,0,46023,50000,1487,49408,0,0,0,0,0.00,0.00,0.00,0.00
2013-07-25 05:10:00,0,48729,0,0.00,0,0,0,0,45047,50000,1832,50000,0,0,0,0,0.00,0.00,0.00,0.00
2013-07-25 05:20:00,0,45233,0,0.00,0,0,0,0,40361,50000,3292,44116,0,0,0,0,0.00,0.00,0.00,0.00
2013-07-25 05:30:00,0,45453,0,0.00,0,0,0,0,37280,50000,3956,45550,0,0,0,0,0.00,0.00,0.00,0.00
2013-07-25 05:40:00,0,43964,0,0.00,0,0,0,0,27568,50000,7522,47792,0,0,0,0,0.00,0.00,0.00,0.00
2013-07-25 05:50:00,0,45348,0,0.00,0,0,0,0,39161,50000,4434,45968,0,0,0,0,0.00,0.00,0.00,0.00
2013-07-25 06:00:00,0,45812,0,0.00,0,0,0,0,42471,50000,2316,45994,0,0,0,0,0.00,0.00,0.00,0.00
2013-07-25 06:10:00,0,45307,0,0.00,0,0,0,0,31261,50000,6054,47875,0,0,0,0,0.00,0.00,0.00,0.00
2013-07-25 06:20:00,0,44009,0,0.00,0,0,0,0,33400,50000,6377,46872,0,0,0,0,0.00,0.00,0.00,0.00
2013-07-25 06:30:00,0,44986,0,0.00,0,0,0,0,36446,50000,4552,46144,0,0,0,0,0.00,0.00,0.00,0.00
2013-07-25 06:40:00,0,44104,0,0.00,0,0,0,0,34667,50000,5248,44728,0,0,0,0,0.00,0.00,0.00,0.00
2013-07-25 06:50:00,0,45454,0,0.00,0,0,0,0,39194,50000,3738,45366,0,0,0,0,0.00,0.00,0.00,0.00
2013-07-25 07:00:00,0,48161,0,0.00,0,0,0,0,43875,50000,1775,48484,0,0,0,0,0.00,0.00,0.00,0.00
2013-07-25 07:10:00,0,47130,0,0.00,0,0,0,0,42314,50000,2421,47840,0,0,0,0,0.00,0.00,0.00,0.00
2013-07-25 07:20:00,0,46500,0,0.00,0,0,0,0,30483,50000,6470,50000,0,0,0,0,0.00,0.00,0.00,0.00
2013-07-25 07:30:00,0,41802,0,0.00,0,0,0,0,32822,50000,5255,41748,0,0,0,0,0.00,0.00,0.00,0.00
2013-07-25 07:40:00,0,46201,0,0.00,0,0,0,0,38828,50000,3955,47230,0,0,0,0,0.00,0.00,0.00,0.00
2013-07-25 07:50:00,0,47060,0,0.00,0,0,0,0,40622,50000,3077,48232,0,0,0,0,0.00,0.00,0.00,0.00
2013-07-25 08:00:00,0,46216,0,0.00,0,0,0,0,41726,50000,2921,45895,0,0,0,0,0.00,0.00,0.00,0.00
2013-07-25 08:10:00,0,45559,0,0.00,0,0,0,0,35846,50000,4800,46906,0,0,0,0,0.00,0.00,0.00,0.00
2013-07-25 08:20:00,0,47794,0,0.00,0,0,0,0,42642,50000,2186,48294,0,0,0,0,0.00,0.00,0.00,0.00
2013-07-25 08:30:00,0,48250,0,0.00,0,0,0,0,41740,50000,2569,49300,0,0,0,0,0.00,0.00,0.00,0.00
2013-07-25 08:40:00,0,47001,0,0.00,0,0,0,0,42087,50000,2589,47560,0,0,0,0,0.00,0.00,0.00,0.00
2013-07-25 08:50:00,0,44944,0,0.00,0,0,0,0,39552,50000,3193,44810,0,0,0,0,0.00,0.00,0.00,0.00
2013-07-25 09:00:00,0,45171,0,0.00,0,0,0,0,37158,50000,4108,44892,0,0,0,0,0.00,0.00,0.00,0.00
2013-07-25 09:10:00,0,41104,0,0.00,0,0,0,0,6502,50000,16792,50000,0,0,0,0,0.00,0.00,0.00,0.00
2013-07-25 09:20:00,0,37185,0,0.00,0,0,0,0,20547,50000,9447,36674,0,0,0,0,0.00,0.00,0.00,0.00
2013-07-25 09:30:00,0,43648,0,0.00,0,0,0,0,36154,50000,4622,44476,0,0,0,0,0.00,0.00,0.00,0.00
2013-07-25 09:40:00,0,47043,0,0.00,0,0,0,0,41313,50000,3681,49683,0,0,0,0,0.00,0.00,0.00,0.00
2013-07-25 09:50:00,0,40812,0,0.00,0,0,0,0,23630,50000,9163,44018,0,0,0,0,0.00,0.00,0.00,0.00
2013-07-25 10:00:00,0,39977,0,0.00,0,0,0,0,32424,50000,6258,39370,0,0,0,0,0.00,0.00,0.00,0.00
2013-07-25 10:10:00,0,36795,0,0.00,0,0,0,0,17696,50000,9819,38112,0,0,0,0,0.00,0.00,0.00,0.00
2013-07-25 10:20:00,0,40600,0,0.00,0,0,0,0,32266,49848,4903,40693,0,0,0,0,0.00,0.00,0.00,0.00
2013-07-25 10:30:00,0,46390,0,0.00,0,0,0,0,35631,50000,4775,49534,0,0,0,0,0.00,0.00,0.00,0.00
2013-07-25 10:40:00,0,45784,0,0.00,0,0,0,0,35299,50000,4116,46942,0,0,0,0,0.00,0.00,0.00,0.00
2013-07-25 10:50:00,0,46157,0,0.00,0,0,0,0,35502,50000,4371,47174,0,0,0,0,0.00,0.00,0.00,0.00
2013-07-25 11:00:00,0,44452,0,0.00,0,0,0,0,31067,50000,5215,45517,0,0,0,0,0.00,0.00,0.00,0.00
2013-07-25 11:10:00,0,43052,0,0.00,0,0,0,0,29446,50000,7264,45494,0,0,0,0,0.00,0.00,0.00,0.00
2013-07-25 11:20:00,0,43688,0,0.00,0,0,0,0,27928,50000,7298,46230,0,0,0,0,0.00,0.00,0.00,0.00
2013-07-25 11:30:00,0,49390,0,0.00,0,0,0,0,46038,50000,1195,50000,0,0,0,0,0.00,0.00,0.00,0.00
2013-07-25 11:40:00,0,49253,0,0.00,0,0,0,0,45805,50000,1420,50000,0,0,0,0,0.00,0.00,0.00,0.00
2013-07-25 11:50:00,0,49591,0,0.00,0,0,0,0,48355,50000,650,50000,0,0,0,0,0.00,0.00,0.00,0.00
2013-07-25 12:00:00,0,45587,0,0.00,0,0,0,0,41640,50000,2742,45266,0,0,0,0,0.00,0.00,0.00,0.00
2013-07-25 12:10:00,0,43664,0,0.00,0,0,0,0,34417,50000,4221,44636,0,0,0,0,0.00,0.00,0.00,0.00
2013-07-25 12:20:00,0,46696,0,0.00,0,0,0,0,42660,50000,2357,46824,0,0,0,0,0.00,0.00,0.00,0.00
2013-07-25 12:30:00,0,48811,0,0.00,0,0,0,0,45001,50000,1743,49949,0,0,0,0,0.00,0.00,0.00,0.00
2013-07-25 12:40:00,0,48620,0,0.00,0,0,0,0,44808,50000,1794,49517,0,0,0,0,0.00,0.00,0.00,0.00
2013-07-25 12:50:00,0,49598,0,0.00,0,0,0,0,46803,50000,963,50000,0,0,0,0,0.00,0.00,0.00,0.00
2013-07-25 13:00:00,0,49335,0,0.00,0,0,0,0,47975,50000,798,49838,0,0,0,0,0.00,0.00,0.00,0.00
2013-07-25 13:10:00,0,49926,0,0.00,0,0,0,0,49261,50000,222,50000,0,0,0,0,0.00,0.00,0.00,0.00
2013-07-25 13:20:00,0,49521,0,0.00,0,0,0,0,46592,50000,1060,50000,0,0,0,0,0.00,0.00,0.00,0.00
2013-07-25 13:30:00,0,49796,0,0.00,0,0,0,0,47963,50000,611,50000,0,0,0,0,0.00,0.00,0.00,0.00
2013-07-25 13:40:00,0,49586,0,0.00,0,0,0,0,48187,50000,656,50000,0,0,0,0,0.00,0.00,0.00,0.00
2013-07-25 13:50:00,0,47698,0,0.00,0,0,0,0,40093,50000,2827,48750,0,0,0,0,0.00,0.00,0.00,0.00
2013-07-25 14:00:00,0,49068,0,0.00,0,0,0,0,44702,50000,1763,50000,0,0,0,0,0.00,0.00,0.00,0.00
2013-07-25 14:10:00,0,49025,0,0.00,0,0,0,0,47024,50000,1230,50000,0,0,0,0,0.00,0.00,0.00,0.00
2013-07-25 14:20:00,0,49849,0,0.00,0,0,0,0,48492,50000,452,50000,0,0,0,0,0.00,0.00,0.00,0.00
2013-07-25 14:30:00,0,48241,0,0.00,0,0,0,0,45115,50000,1626,48344,0,0,0,0,0.00,0.00,0.00,0.00
2013-07-25 14:40:00,0,49097,0,0.00,0,0,0,0,46452,50000,1300,50000,0,0,0,0,0.00,0.00,0.00,0.00
2013-07-25 14:50:00,0,48453,0,0.00,0,0,0,0,43058,50000,2577,49850,0,0,0,0,0.00,0.00,0.00,0.00
2013-07-25 15:00:00,0,42936,0,0.00,0,0,0,0,30205,50000,6961,44972,0,0,0,0,0.00,0.00,0.00,0.00
2013-07-25 15:10:00,0,49271,0,0.00,0,0,0,0,45789,50000,1480,50000,0,0,0,0,0.00,0.00,0.00,0.00
2013-07-25 15:20:00,0,49934,0,0.00,0,0,0,0,49340,50000,198,50000,0,0,0,0,0.00,0.00,0.00,0.00
2013-07-25 15:30:00,0,49654,0,0.00,0,0,0,0,48165,50000,688,50000,0,0,0,0,0.00,0.00,0.00,0.00
2013-07-25 15:40:00,0,47901,0,0.00,0,0,0,0,44818,50000,1768,48355,0,0,0,0,0.00,0.00,0.00,0.00
2013-07-25 15:50:00,0,49750,0,0.00,0,0,0,0,48190,50000,559,50000,0,0,0,0,0.00,0.00,0.00,0.00
2013-07-25 16:00:00,0,49668,0,0.00,0,0,0,0,48441,50000,547,50000,0,0,0,0,0.00,0.00,0.00,0.00
2013-07-25 16:10:00,0,48339,0,0.00,0,0,0,0,44472,50000,2237,50000,0,0,0,0,0.00,0.00,0.00,0.00
2013-07-25 16:20:00,0,48648,0,0.00,0,0,0,0,45594,50000,1640,49792,0,0,0,0,0.00,0.00,0.00,0.00
2013-07-25 16:30:00,0,49812,0,0.00,0,0,0,0,48116,50000,565,50000,0,0,0,0,0.00,0.00,0.00,0.00
2013-07-25 16:40:00,0,49793,0,0.00,0,0,0,0,47929,50000,621,50000,0,0,0,0,0.00,0.00,0.00,0.00
2013-07-25 16:50:00,0,49595,0,0.00,0,0,0,0,47471,50000,766,50000,0,0,0,0,0.00,0.00,0.00,0.00
2013-07-25 17:00:00,0,49214,0,0.00,0,0,0,0,45935,50000,1234,49842,0,0,0,0,0.00,0.00,0.00,0.00
2013-07-25 17:10:00,0,49539,0,0.00,0,0,0,0,45478,50000,1354,50000,0,0,0,0,0.00,0.00,0.00,0.00
2013-07-25 17:20:00,1,49707,0,0.00,0,2,1,2,47742,50000,685,50000,0,0,0,0,0.00,0.00,0.00,0.00
2013-07-25 17:30:00,2,49960,0,0.00,2,2,0,2,49766,50000,81,50000,0,0,0,0,0.00,0.00,0.00,0.00
2013-07-25 17:40:00,2,50000,0,0.00,2,2,0,2,50000,50000,0,50000,0,0,0,0,0.00,0.00,0.00,0.00
2013-07-25 17:50:00,2,50000,0,0.00,2,2,0,2,50000,50000,0,50000,0,0,0,0,0.00,0.00,0.00,0.00
2013-07-25 18:00:00,2,49864,0,0.00,2,2,0,2,48644,50000,407,50000,0,0,0,0,0.00,0.00,0.00,0.00
2013-07-25 18:10:00,2,50000,0,0.00,2,2,0,2,50000,50000,0,50000,0,0,0,0,0.00,0.00,0.00,0.00
2013-07-25 18:20:00,2,50000,0,0.00,2,2,0,2,50000,50000,0,50000,0,0,0,0,0.00,0.00,0.00,0.00
2013-07-25 18:30:00,2,50000,0,0.00,2,2,0,2,50000,50000,0,50000,0,0,0,0,0.00,0.00,0.00,0.00
2013-07-25 18:40:00,2,49996,0,0.00,2,2,0,2,49961,50000,12,50000,0,0,0,0,0.00,0.00,0.00,0.00
2013-07-25 18:50:00,2,50000,0,0.00,0,2,1,2,50000,50000,0,50000,0,0,0,0,0.00,0.00,0.00,0.00
2013-07-25 19:00:00,1,50000,0,0.00,0,2,1,0,50000,50000,0,50000,0,0,0,0,0.00,0.00,0.00,0.00
2013-07-25 19:10:00,0,49880,0,0.00,0,0,0,0,48798,50000,361,50000,0,0,0,0,0.00,0.00,0.00,0.00
2013-07-25 19:20:00,0,45821,0,0.00,0,0,0,0,22220,50000,8382,49837,0,0,0,0,0.00,0.00,0.00,0.00
2013-07-25 19:30:00,1,8822,2,0.00,0,2,1,0,1129,23329,6904,5770,0,10,4,0,0.00,0.00,0.00,0.00
2013-07-25 19:40:00,2,3205,10,0.00,2,2,0,2,1135,7864,2296,2516,10,10,0,10,0.00,0.00,0.00,0.00
2013-07-25 19:50:00,2,30010,10,0.00,2,2,0,2,4772,50000,17796,34678,10,10,0,10,0.00,0.00,0.00,0.00
2013-07-25 20:00:00,2,50000,1,0.00,2,2,0,2,50000,50000,0,50000,0,10,3,0,0.00,0.00,0.00,0.00
2013-07-25 20:10:00,2,49170,0,0.00,2,2,0,2,43000,50000,2093,50000,0,0,0,0,0.00,0.00,0.00,0.00
2013-07-25 20:20:00,1,49850,0,0.00,0,2,1,2,48502,50000,449,50000,0,0,0,0,0.00,0.00,0.00,0.00
2013-07-25 20:30:00,1,49614,0,0.00,0,2,1,0,47722,50000,787,50000,0,0,0,0,0.00,0.00,0.00,0.00
2013-07-25 20:40:00,0,44310,0,0.00,0,0,0,0,33873,50000,5580,44594,0,0,0,0,0.00,0.00,0.00,0.00
2013-07-25 20:50:00,0,48782,0,0.00,0,0,0,0,45620,50000,1486,49592,0,0,0,0,0.00,0.00,0.00,0.00
2013-07-25 21:00:00,0,49992,0,0.00,0,0,0,0,49915,50000,26,50000,0,0,0,0,0.00,0.00,0.00,0.00
2013-07-25 21:10:00,0,49714,0,0.00,0,0,0,0,47960,50000,624,50000,0,0,0,0,0.00,0.00,0.00,0.00
2013-07-25 21:20:00,0,41867,0,0.00,0,0,0,0,28524,49778,5582,43606,0,0,0,0,0.00,0.00,0.00,0.00
2013-07-25 21:30:00,1,41583,0,0.00,0,2,1,0,30637,50000,6358,42240,0,0,0,0,0.00,0.00,0.00,0.00
2013-07-25 21:40:00,2,40980,0,0.00,2,2,0,2,32999,47155,3825,41548,0,0,0,0,0.00,0.00,0.00,0.00
2013-07-25 21:50:00,2,43070,0,0.00,2,2,0,2,36735,50000,4955,42476,0,0,0,0,0.00,0.00,0.00,0.00
2013-07-25 22:00:00,2,40665,0,0.00,2,2,0,2,38315,45751,2544,39627,0,0,0,0,0.00,0.00,0.00,0.00
2013-07-25 22:10:00,2,40703,0,0.00,2,2,0,2,30217,48023,5327,40546,0,0,0,0,0.00,0.00,0.00,0.00
2013-07-25 22:20:00,2,36910,0,0.00,2,2,0,2,26842,47553,7213,34290,0,0,0,0,0.00,0.00,0.00,0.00
2013-07-25 22:30:00,2,42880,0,0.00,2,2,0,2,38253,49233,3766,42762,0,0,0,0,0.00,0.00,0.00,0.00
2013-07-25 22:40:00,2,38354,0,0.00,2,2,0,2,35823,44126,2391,37732,0,0,0,0,0.00,0.00,0.00,0.00
2013-07-25 22:50:00,2,38497,0,0.00,2,2,0,2,25612,46018,5798,40018,0,0,0,0,0.00,0.00,0.00,0.00
2013-07-25 23:00:00,2,28562,0,0.00,2,2,0,2,19715,35908,4596,28140,0,0,0,0,0.00,0.00,0.00,0.00
2013-07-25 23:10:00,2,16521,0,0.00,2,2,0,2,7018,28343,6873,16308,0,0,0,0,0.00,0.00,0.00,0.00
2013-07-25 23:20:00,2,6384,3,0.00,2,2,0,2,2281,11453,3008,6414,0,4,2,4,0.00,0.00,0.00,0.00
2013-07-25 23:30:00,2,2735,11,0.12,2,2,0,2,842,6232,1611,2358,4,61,17,4,0.00,1.15,0.35,0.00
2013-07-25 23:40:00,2,1542,61,11.03,2,2,0,2,1119,2561,438,1346,61,62,0,61,0.75,33.45,11.12,6.35
2013-07-25 23:50:00,2,1721,49,0.52,2,2,0,2,1012,3090,560,1560,10,61,20,61,0.00,2.70,0.82,0.12
